This is the latest recevied weather packets stored in our database for station/object KC5DAQ-27. If no packets are shown the sender has not sent any weather packets the latest 10 day(s).
| Time | Temp. | Humidity | Pressure | Rain* | Wind** | Luminosity | Snow |
|---|---|---|---|---|---|---|---|
| 1777491624 | 29.44° C | 77% | 1002 hPa | 0 mm | - | 424 W/m² | - |
| 1777491564 | 29.44° C | 77% | 1002.2 hPa | 0 mm | - | 415 W/m² | - |
| 1777491503 | 29.44° C | 77% | 1002.1 hPa | 0 mm | - | 366 W/m² | - |
| 1777491443 | 29.44° C | 76% | 1002.1 hPa | 0 mm | - | 280 W/m² | - |
| 1777491383 | 29.44° C | 76% | 1002.2 hPa | 0 mm | - | 266 W/m² | - |
| 1777491325 | 28.89° C | 76% | 1002 hPa | 0 mm | - | 253 W/m² | - |
| 1777491263 | 28.89° C | 76% | 1002.1 hPa | 0 mm | - | 253 W/m² | - |
| 1777491203 | 28.89° C | 76% | 1002 hPa | 0 mm | - | 264 W/m² | - |
| 1777491144 | 28.89° C | 77% | 1002 hPa | 0 mm | - | 287 W/m² | - |
| 1777491085 | 28.89° C | 77% | 1002.1 hPa | 0 mm | - | 417 W/m² | - |
| 1777491024 | 28.89° C | 76% | 1002 hPa | 0 mm | - | 447 W/m² | - |
| 1777490964 | 28.89° C | 77% | 1002.1 hPa | 0 mm | - | 454 W/m² | - |
| 1777490903 | 28.89° C | 77% | 1002.1 hPa | 0 mm | - | 441 W/m² | - |
| 1777490844 | 28.89° C | 77% | 1002.2 hPa | 0 mm | - | 443 W/m² | - |
| 1777490783 | 28.89° C | 77% | 1002.2 hPa | 0 mm | - | 394 W/m² | - |
| 1777490724 | 28.89° C | 77% | 1002.2 hPa | 0 mm | - | 362 W/m² | - |
| 1777490664 | 28.89° C | 77% | 1002.2 hPa | 0 mm | - | 332 W/m² | - |
| 1777490604 | 28.89° C | 76% | 1002.3 hPa | 0 mm | - | 338 W/m² | - |
| 1777490544 | 28.89° C | 77% | 1002.2 hPa | 0 mm | - | 353 W/m² | - |
| 1777490484 | 28.89° C | 77% | 1002.2 hPa | 0 mm | - | 353 W/m² | - |
| 1777490423 | 28.89° C | 77% | 1002.2 hPa | 0 mm | - | 336 W/m² | - |
| 1777490363 | 28.89° C | 77% | 1002.3 hPa | 0 mm | - | 313 W/m² | - |
| 1777490304 | 28.89° C | 77% | 1002.3 hPa | 0 mm | - | 287 W/m² | - |
| 1777490243 | 28.89° C | 76% | 1002.3 hPa | 0 mm | - | 269 W/m² | - |
| 1777490183 | 29.44° C | 76% | 1002.4 hPa | 0 mm | - | 262 W/m² | - |
* Rain latest hour (hover to see other rain measurements)
** Current wind speed in m/s (hover to see current wind gust speed)